• In Lithuania
  • List of Countries
  • For 7 days
  • Water Temperature
  • Satellite Maps
  • Weather Map
  • Weather Widgets
  • user-avatar
    Login

    Hourly Weather Juticalpa

    Today, 19 September, Wednesday

    Time Temperature Precipitation Wind Pressure Humidity
    00:00 +22°C° 0 mm 0 mps 726 mmHg 96%
    01:00 +22°C° 0.2 mm 0 mps 726 mmHg 96%
    02:00 +21°C° 0.2 mm 0 mps 725 mmHg 97%
    03:00 +21°C° 0.2 mm 0 mps 725 mmHg 98%
    04:00 +21°C° 0.1 mm 0 mps 725 mmHg 97%
    05:00 +21°C° 0.1 mm 0 mps 726 mmHg 97%
    06:00 +22°C° 0 mm 0 mps 726 mmHg 96%
    07:00 +24°C° 0 mm 0 mps 726 mmHg 86%
    08:00 +26°C° 0 mm 0 mps 727 mmHg 77%
    09:00 +30°C° 0 mm 1 mps 727 mmHg 68%
    10:00 +32°C° 0.4 mm 1 mps 726 mmHg 63%
    11:00 +33°C° 0.4 mm 1 mps 726 mmHg 59%
    12:00 +35°C° 0.4 mm 2 mps 726 mmHg 55%
    13:00 +34°C° 1 mm 2 mps 725 mmHg 63%
    14:00 +31°C° 1 mm 2 mps 725 mmHg 71%
    15:00 +30°C° 1 mm 2 mps 724 mmHg 79%
    16:00 +29°C° 0.9 mm 1 mps 724 mmHg 83%
    17:00 +28°C° 0.9 mm 1 mps 725 mmHg 87%
    18:00 +26°C° 0.9 mm 1 mps 725 mmHg 91%
    19:00 +24°C° 0.4 mm 0 mps 725 mmHg 93%
    20:00 +23°C° 0.4 mm 0 mps 726 mmHg 95%
    21:00 +23°C° 0.4 mm 0 mps 726 mmHg 96%
    22:00 +23°C° 0.1 mm 0 mps 726 mmHg 97%
    23:00 +22°C° 0.1 mm 0 mps 726 mmHg 97%

    Tomorrow, 20 September, Thursday

    Time Temperature Precipitation Wind Pressure Humidity
    00:00 +22°C° 0.1 mm 0 mps 726 mmHg 98%
    01:00 +22°C° 0 mm 0 mps 726 mmHg 98%
    02:00 +22°C° 0 mm 0 mps 725 mmHg 98%
    03:00 +22°C° 0 mm 0 mps 725 mmHg 99%
    04:00 +22°C° 0 mm 0 mps 725 mmHg 98%
    05:00 +22°C° 0 mm 0 mps 725 mmHg 98%
    06:00 +22°C° 0 mm 0 mps 726 mmHg 98%
    07:00 +24°C° 0.1 mm 0 mps 726 mmHg 92%
    08:00 +27°C° 0.1 mm 1 mps 726 mmHg 87%
    09:00 +28°C° 0.1 mm 1 mps 727 mmHg 81%
    10:00 +29°C° 0.6 mm 1 mps 727 mmHg 78%
    11:00 +30°C° 0.6 mm 1 mps 726 mmHg 75%
    12:00 +31°C° 0.6 mm 2 mps 726 mmHg 72%
    13:00 +30°C° 1.5 mm 2 mps 726 mmHg 78%
    14:00 +29°C° 1.5 mm 1 mps 725 mmHg 83%
    15:00 +29°C° 1.5 mm 1 mps 725 mmHg 89%
    16:00 +28°C° 2.1 mm 1 mps 725 mmHg 92%
    17:00 +26°C° 2.1 mm 1 mps 725 mmHg 94%
    18:00 +25°C° 2.1 mm 1 mps 725 mmHg 97%
    19:00 +25°C° 0.5 mm 1 mps 726 mmHg 97%
    20:00 +23°C° 0.5 mm 0 mps 726 mmHg 97%
    21:00 +23°C° 0.5 mm 0 mps 727 mmHg 98%
    22:00 +23°C° 0.3 mm 0 mps 727 mmHg 98%
    23:00 +23°C° 0.3 mm 0 mps 727 mmHg 98%

    Day after tomorrow, 21 September, Friday

    Time Temperature Precipitation Wind Pressure Humidity
    00:00 +23°C° 0.3 mm 0 mps 726 mmHg 98%
    01:00 +23°C° 0.2 mm 0 mps 726 mmHg 98%
    02:00 +23°C° 0.2 mm 0 mps 726 mmHg 98%
    03:00 +23°C° 0.2 mm 0 mps 725 mmHg 98%
    04:00 +23°C° 0.1 mm 0 mps 726 mmHg 98%
    05:00 +22°C° 0.1 mm 0 mps 726 mmHg 98%
    06:00 +22°C° 0.1 mm 0 mps 726 mmHg 98%
    07:00 +26°C° 0.2 mm 1 mps 726 mmHg 92%
    08:00 +27°C° 0.2 mm 1 mps 727 mmHg 86%
    09:00 +29°C° 0.2 mm 1 mps 727 mmHg 81%
    10:00 +29°C° 0.7 mm 1 mps 727 mmHg 79%
    11:00 +30°C° 0.7 mm 2 mps 727 mmHg 78%
    12:00 +30°C° 0.7 mm 2 mps 726 mmHg 77%
    13:00 +31°C° 1 mm 2 mps 726 mmHg 76%
    14:00 +31°C° 1 mm 2 mps 725 mmHg 75%
    15:00 +31°C° 1 mm 2 mps 724 mmHg 74%
    16:00 +29°C° 0.7 mm 1 mps 725 mmHg 80%
    17:00 +28°C° 0.7 mm 1 mps 725 mmHg 86%
    18:00 +26°C° 0.7 mm 1 mps 725 mmHg 91%
    19:00 +24°C° 0.1 mm 0 mps 726 mmHg 93%
    20:00 +23°C° 0.1 mm 0 mps 726 mmHg 95%
    21:00 +23°C° 0.1 mm 0 mps 727 mmHg 96%
    22:00 +23°C° 0.1 mm 0 mps 727 mmHg 97%
    23:00 +22°C° 0.1 mm 0 mps 727 mmHg 97%

    22 September, Saturday

    Time Temperature Precipitation Wind Pressure Humidity
    00:00 +22°C° 0.1 mm 0 mps 726 mmHg 98%
    01:00 +22°C° 0 mm 0 mps 726 mmHg 98%
    02:00 +22°C° 0 mm 0 mps 726 mmHg 98%
    03:00 +22°C° 0 mm 0 mps 725 mmHg 98%
    04:00 +22°C° 0 mm 0 mps 725 mmHg 98%
    05:00 +22°C° 0 mm 0 mps 725 mmHg 98%
    06:00 +22°C° 0 mm 0 mps 726 mmHg 98%
    07:00 +24°C° 0 mm 0 mps 726 mmHg 87%
    08:00 +27°C° 0 mm 0 mps 727 mmHg 77%
    09:00 +31°C° 0 mm 1 mps 727 mmHg 67%
    10:00 +32°C° 0.4 mm 1 mps 727 mmHg 64%
    11:00 +33°C° 0.4 mm 1 mps 726 mmHg 61%
    12:00 +34°C° 0.4 mm 1 mps 726 mmHg 58%
    13:00 +33°C° 1.4 mm 1 mps 725 mmHg 64%
    14:00 +32°C° 1.4 mm 2 mps 724 mmHg 70%
    15:00 +31°C° 1.4 mm 2 mps 724 mmHg 76%
    16:00 +29°C° 2.3 mm 2 mps 724 mmHg 83%
    17:00 +27°C° 2.3 mm 1 mps 724 mmHg 89%
    18:00 +25°C° 2.3 mm 1 mps 725 mmHg 96%
    19:00 +25°C° 0.3 mm 1 mps 725 mmHg 97%
    20:00 +25°C° 0.3 mm 1 mps 726 mmHg 97%
    21:00 +22°C° 0.3 mm 0 mps 726 mmHg 98%
    22:00 +22°C° 0.1 mm 0 mps 726 mmHg 98%
    23:00 +22°C° 0.1 mm 0 mps 726 mmHg 98%

    23 September, Sunday

    Time Temperature Precipitation Wind Pressure Humidity
    00:00 +22°C° 0.1 mm 0 mps 726 mmHg 99%
    01:00 +22°C° 0 mm 0 mps 725 mmHg 99%
    02:00 +22°C° 0 mm 0 mps 725 mmHg 98%
    03:00 +22°C° 0 mm 0 mps 725 mmHg 98%
    04:00 +22°C° 0 mm 0 mps 725 mmHg 98%
    05:00 +21°C° 0 mm 0 mps 725 mmHg 98%
    06:00 +21°C° 0 mm 0 mps 725 mmHg 98%
    07:00 +24°C° 0 mm 0 mps 726 mmHg 88%
    08:00 +26°C° 0 mm 0 mps 726 mmHg 78%
    09:00 +30°C° 0 mm 1 mps 727 mmHg 68%
    10:00 +31°C° 0.1 mm 1 mps 726 mmHg 63%
    11:00 +32°C° 0.1 mm 1 mps 726 mmHg 58%
    12:00 +34°C° 0.1 mm 2 mps 725 mmHg 53%
    13:00 +34°C° 0.1 mm 2 mps 725 mmHg 51%
    14:00 +34°C° 0.1 mm 2 mps 724 mmHg 50%
    15:00 +34°C° 0.1 mm 2 mps 723 mmHg 48%
    16:00 +31°C° 0.2 mm 2 mps 724 mmHg 58%
    17:00 +29°C° 0.2 mm 1 mps 724 mmHg 68%
    18:00 +27°C° 0.2 mm 1 mps 725 mmHg 78%
    19:00 +26°C° 0.1 mm 1 mps 725 mmHg 83%
    20:00 +25°C° 0.1 mm 1 mps 726 mmHg 89%
    21:00 +22°C° 0.1 mm 0 mps 726 mmHg 94%
    22:00 +22°C° 0 mm 0 mps 726 mmHg 95%
    23:00 +21°C° 0 mm 0 mps 726 mmHg 97%

    24 September, Monday

    Time Temperature Precipitation Wind Pressure Humidity
    00:00 +21°C° 0 mm 0 mps 726 mmHg 98%
    01:00 +21°C° 0 mm 0 mps 725 mmHg 98%
    02:00 +21°C° 0 mm 0 mps 725 mmHg 98%
    03:00 +21°C° 0 mm 0 mps 725 mmHg 98%
    04:00 +21°C° 0 mm 0 mps 725 mmHg 98%
    05:00 +21°C° 0 mm 0 mps 726 mmHg 98%
    06:00 +21°C° 0 mm 0 mps 726 mmHg 98%
    07:00 +23°C° 0 mm 0 mps 726 mmHg 87%
    08:00 +27°C° 0 mm 1 mps 727 mmHg 77%
    09:00 +29°C° 0 mm 1 mps 727 mmHg 66%
    10:00 +30°C° 0.1 mm 1 mps 727 mmHg 62%
    11:00 +31°C° 0.1 mm 2 mps 726 mmHg 58%
    12:00 +34°C° 0.1 mm 2 mps 726 mmHg 53%
    13:00 +32°C° 0.5 mm 2 mps 725 mmHg 57%
    14:00 +32°C° 0.5 mm 2 mps 724 mmHg 60%
    15:00 +31°C° 0.5 mm 2 mps 724 mmHg 63%
    16:00 +29°C° 0.7 mm 2 mps 724 mmHg 74%
    17:00 +27°C° 0.7 mm 1 mps 725 mmHg 84%
    18:00 +25°C° 0.7 mm 1 mps 725 mmHg 94%
    19:00 +24°C° 0.2 mm 1 mps 726 mmHg 95%
    20:00 +22°C° 0.2 mm 0 mps 726 mmHg 96%
    21:00 +21°C° 0.2 mm 0 mps 727 mmHg 97%
    22:00 +21°C° 0 mm 0 mps 727 mmHg 97%
    23:00 +21°C° 0 mm 0 mps 727 mmHg 98%
    Show more